Location: Unspecified
(0.0000°N, 0.0000°E)
Time: 00:13:05
(UTC+00:00)

Vanguard 2 - All Passes

Search period start: 28 August 2015 00:00
Search period end: 07 September 2015 00:00
Orbit: 554 x 2942 km, 32.9° (Epoch: 27 August)

Date Brightness Start Highest point End Pass type
(mag) Time Alt. Az. Time Alt. Az. Time Alt. Az.
28 Aug - 01:54:10 10° W 02:06:04 49° SSW 02:22:35 10° SE visible
28 Aug - 04:09:28 10° WSW 04:21:41 23° SSW 04:34:14 10° SSE visible
28 Aug - 06:30:51 10° SSW 06:39:33 15° S 06:47:22 10° SSE daylight
28 Aug - 08:46:40 10° SSW 08:56:17 20° SSE 09:03:56 10° ESE daylight
28 Aug - 10:58:25 10° SW 11:09:31 45° SSE 11:16:19 10° E daylight
28 Aug - 13:11:15 10° WSW 13:19:03 42° NW 13:24:00 10° NNE daylight
28 Aug - 21:56:54 10° NNW 22:02:45 25° NE 22:11:40 10° E night (unlit)
29 Aug - 00:03:14 10° NW 00:12:38 90° SW 00:28:17 10° SE visible
29 Aug - 02:13:49 10° W 02:25:38 38° SSW 02:41:06 10° SE visible
29 Aug - 04:30:51 10° SW 04:42:01 20° SSW 04:53:03 10° SSE visible
29 Aug - 06:51:13 10° SSW 07:00:07 16° S 07:08:10 10° SE daylight
29 Aug - 09:05:04 10° SSW 09:16:12 25° SSE 09:24:25 10° ESE daylight
29 Aug - 11:17:02 10° SW 11:28:36 65° SSE 11:35:21 10° ENE daylight
29 Aug - 13:31:10 10° W 13:37:30 25° NW 13:41:51 10° NNE daylight
29 Aug - 22:14:39 10° NNW 22:21:20 37° NE 22:32:08 10° ESE night (unlit)
30 Aug - 00:21:59 10° WNW 00:31:35 69° SSW 00:47:12 10° SE visible
30 Aug - 02:33:54 10° W 02:45:24 30° SSW 02:59:36 10° SSE visible
30 Aug - 04:52:24 10° SW 05:02:31 17° S 05:12:22 10° SSE visible
30 Aug - 07:10:41 10° SSW 07:20:35 18° S 07:29:20 10° SE daylight
30 Aug - 09:23:27 10° SW 09:35:54 33° SSE 09:44:25 10° E daylight
30 Aug - 11:35:56 10° SW 11:47:26 88° NW 11:54:03 10° NE daylight
30 Aug - 13:52:00 10° WNW 13:56:02 15° NW 13:59:01 10° N daylight
30 Aug - 22:32:43 10° NW 22:39:52 54° NE 22:52:00 10° ESE night (unlit)
31 Aug - 00:41:02 10° WNW 00:50:46 52° SSW 01:05:55 10° SE visible
31 Aug - 02:54:27 10° WSW 03:05:25 24° SSW 03:18:09 10° SSE visible
31 Aug - 05:13:39 10° SW 05:23:09 16° S 05:32:23 10° SSE visible
31 Aug - 07:29:34 10° SSW 07:40:52 21° SSE 07:50:24 10° ESE daylight
31 Aug - 09:41:54 10° SW 09:55:23 44° SSE 10:03:57 10° E daylight
31 Aug - 11:55:09 10° WSW 12:06:04 60° NW 12:12:27 10° NE daylight
31 Aug - 20:46:14 10° N 20:49:32 15° NE 20:54:06 10° ENE visible
31 Aug - 22:51:02 10° NW 22:58:28 78° NE 23:11:24 10° ESE night (unlit)
01 Sep - 01:00:27 10° W 01:10:10 40° SSW 01:24:27 10° SE visible
01 Sep - 03:15:27 10° SW 03:25:39 20° SSW 03:36:55 10° SSE visible
01 Sep - 05:34:11 10° SSW 05:43:48 16° S 05:53:11 10° SE visible
01 Sep - 07:48:10 10° SSW 08:00:56 26° SSE 08:11:05 10° ESE daylight
01 Sep - 10:00:30 10° SW 10:14:37 60° SSE 10:23:07 10° ENE daylight
01 Sep - 12:14:48 10° WSW 12:24:33 39° NW 12:30:34 10° NNE daylight
01 Sep - 21:03:21 10° NNW 21:08:06 24° NE 21:15:12 10° E visible
01 Sep - 23:09:37 10° WNW 23:17:14 77° SSW 23:30:26 10° SE night (unlit)
02 Sep - 01:20:15 10° W 01:29:49 31° SSW 01:42:55 10° SSE visible
02 Sep - 03:36:42 10° SW 03:46:04 17° S 03:56:07 10° SSE visible
02 Sep - 05:53:52 10° SSW 06:04:22 18° S 06:14:29 10° SE daylight
02 Sep - 08:06:39 10° SW 08:20:48 33° SSE 08:31:18 10° E daylight
02 Sep - 10:19:19 10° SW 10:33:37 81° SE 10:41:59 10° ENE daylight
02 Sep - 12:35:03 10° W 12:43:04 26° NW 12:48:20 10° NNE daylight
02 Sep - 21:21:06 10° NNW 21:26:34 39° NE 21:35:22 10° ESE night (unlit)
02 Sep - 23:28:31 10° WNW 23:36:16 55° SSW 23:49:11 10° SE night (unlit)
03 Sep - 01:40:31 10° WSW 01:49:41 24° SSW 02:01:22 10° SSE visible
03 Sep - 03:57:50 10° SW 04:06:39 16° S 04:16:00 10° SSE visible
03 Sep - 06:12:57 10° SSW 06:24:47 21° SSE 06:35:49 10° ESE daylight
03 Sep - 08:25:09 10° SW 08:40:25 43° SSE 08:51:03 10° E daylight
03 Sep - 10:38:24 10° WSW 10:52:24 75° NW 11:00:32 10° NE daylight
03 Sep - 12:56:09 10° WNW 13:01:40 16° NW 13:05:34 10° N daylight
03 Sep - 21:39:14 10° NW 21:45:03 61° NE 21:54:56 10° ESE night (unlit)
03 Sep - 23:47:44 10° W 23:55:30 40° SSW 00:07:43 10° SE night (unlit)
04 Sep - 02:01:15 10° SW 02:09:45 19° SSW 02:19:56 10° SSE visible
04 Sep - 04:18:24 10° SSW 04:27:16 16° S 04:36:46 10° SE visible
04 Sep - 06:31:39 10° SSW 06:44:58 26° SSE 06:56:49 10° ESE daylight
04 Sep - 08:43:42 10° SW 08:59:48 56° SSE 09:10:26 10° ENE daylight
04 Sep - 10:57:51 10° WSW 11:11:01 54° NW 11:18:51 10° NE daylight
04 Sep - 19:52:45 10° N 19:55:16 14° NE 19:58:34 10° ENE visible
04 Sep - 21:57:38 10° NW 22:03:40 88° SW 22:14:05 10° SE night (unlit)
05 Sep - 00:07:20 10° W 00:14:59 30° SSW 00:26:06 10° SSE visible
05 Sep - 02:22:19 10° SW 02:30:01 16° S 02:38:50 10° SSE visible
05 Sep - 04:38:08 10° SSW 04:47:51 17° S 04:58:16 10° SE visible
05 Sep - 06:50:10 10° SSW 07:04:56 32° SSE 07:17:21 10° E daylight
05 Sep - 09:02:25 10° SW 09:18:58 73° SSE 09:29:26 10° ENE daylight
05 Sep - 11:17:46 10° WSW 11:29:35 38° NW 11:36:55 10° NNE daylight
05 Sep - 20:09:49 10° NNW 20:13:46 24° NE 20:19:23 10° E visible
05 Sep - 22:16:22 10° WNW 22:22:30 59° SSW 22:32:52 10° SE night (unlit)
06 Sep - 00:27:25 10° WSW 00:34:40 22° SSW 00:44:22 10° SSE visible
06 Sep - 02:43:25 10° SSW 02:50:27 14° S 02:58:22 10° SSE visible
06 Sep - 04:57:14 10° SSW 05:08:18 20° SSE 05:19:57 10° ESE visible
06 Sep - 07:08:38 10° SW 07:24:40 41° SSE 07:37:24 10° E daylight
06 Sep - 09:21:23 10° SW 09:37:54 88° NW 09:48:10 10° NE daylight
06 Sep - 11:38:17 10° W 11:48:11 26° NW 11:54:41 10° NNE daylight
06 Sep - 20:27:39 10° NNW 20:32:13 42° NE 20:39:12 10° ESE visible
06 Sep - 22:35:27 10° W 22:41:35 40° SSW 22:51:23 10° SE night (unlit)
